owner,sensor,date,latitude,longitude,air_pressure(mBar),qcFlag 
COMPS,ioos:station:USF.COMPS:C10:1,2016-12-01T00:05:00Z,27.1690,-82.9260,1013.03,1111122 
COMPS,ioos:station:USF.COMPS:C10:1,2016-12-01T00:35:00Z,27.1690,-82.9260,1013.28,1111122 
COMPS,ioos:station:USF.COMPS:C10:1,2016-12-01T01:05:00Z,27.1690,-82.9260,1013.29,1111122 
COMPS,ioos:station:USF.COMPS:C10:1,2016-12-01T01:35:00Z,27.1690,-82.9260,1013.38,1111122 
COMPS,ioos:station:USF.COMPS:C10:1,2016-12-01T02:05:00Z,27.1690,-82.9260,1013.37,1111122 
COMPS,ioos:station:USF.COMPS:C10:1,2016-12-01T02:35:00Z,27.1690,-82.9260,1013.27,1111122 
COMPS,ioos:station:USF.COMPS:C10:1,2016-12-01T03:05:00Z,27.1690,-82.9260,1013.34,1111122 
COMPS,ioos:station:USF.COMPS:C10:1,2016-12-01T03:35:00Z,27.1690,-82.9260,1013.46,1111122 
COMPS,ioos:station:USF.COMPS:C10:1,2016-12-01T04:05:00Z,27.1690,-82.9260,1013.57,1111122 
COMPS,ioos:station:USF.COMPS:C10:1,2016-12-01T04:35:00Z,27.1690,-82.9260,1013.3,1111122 
COMPS,ioos:station:USF.COMPS:C10:1,2016-12-01T05:05:00Z,27.1690,-82.9260,1012.9,1111122 
COMPS,ioos:station:USF.COMPS:C10:1,2016-12-01T05:35:00Z,27.1690,-82.9260,1012.82,1111122 
COMPS,ioos:station:USF.COMPS:C10:1,2016-12-01T06:05:00Z,27.1690,-82.9260,1012.62,1111122 
COMPS,ioos:station:USF.COMPS:C10:1,2016-12-01T06:35:00Z,27.1690,-82.9260,1012.62,1111122 
COMPS,ioos:station:USF.COMPS:C10:1,2016-12-01T07:05:00Z,27.1690,-82.9260,1012.61,1111122 
COMPS,ioos:station:USF.COMPS:C10:1,2016-12-01T07:35:00Z,27.1690,-82.9260,1012.35,1111122 
COMPS,ioos:station:USF.COMPS:C10:1,2016-12-01T08:05:00Z,27.1690,-82.9260,1012.56,1111122 
COMPS,ioos:station:USF.COMPS:C10:1,2016-12-01T08:35:00Z,27.1690,-82.9260,1012.62,1111122 
COMPS,ioos:station:USF.COMPS:C10:1,2016-12-01T09:05:00Z,27.1690,-82.9260,1012.55,1111122 
COMPS,ioos:station:USF.COMPS:C10:1,2016-12-01T09:35:00Z,27.1690,-82.9260,1012.83,1111122 
COMPS,ioos:station:USF.COMPS:C10:1,2016-12-01T10:05:00Z,27.1690,-82.9260,1012.83,1111122 
COMPS,ioos:station:USF.COMPS:C10:1,2016-12-01T10:35:00Z,27.1690,-82.9260,1012.86,1111122 
COMPS,ioos:station:USF.COMPS:C10:1,2016-12-01T11:05:00Z,27.1690,-82.9260,1012.97,1111122 
COMPS,ioos:station:USF.COMPS:C10:1,2016-12-01T11:35:00Z,27.1690,-82.9260,1013.03,1111122 
COMPS,ioos:station:USF.COMPS:C10:1,2016-12-01T12:05:00Z,27.1690,-82.9260,1013.18,1111122 
COMPS,ioos:station:USF.COMPS:C10:1,2016-12-01T12:35:00Z,27.1690,-82.9260,1013.31,1111122 
COMPS,ioos:station:USF.COMPS:C10:1,2016-12-01T13:05:00Z,27.1690,-82.9260,1013.62,1111122 
COMPS,ioos:station:USF.COMPS:C10:1,2016-12-01T13:35:00Z,27.1690,-82.9260,1013.66,1111122 
COMPS,ioos:station:USF.COMPS:C10:1,2016-12-01T14:05:00Z,27.1690,-82.9260,1014.15,1111122 
COMPS,ioos:station:USF.COMPS:C10:1,2016-12-01T14:35:00Z,27.1690,-82.9260,1014.54,1111122 
COMPS,ioos:station:USF.COMPS:C10:1,2016-12-01T15:05:00Z,27.1690,-82.9260,1014.79,1111122 
COMPS,ioos:station:USF.COMPS:C10:1,2016-12-01T15:35:00Z,27.1690,-82.9260,1014.74,1111122 
COMPS,ioos:station:USF.COMPS:C10:1,2016-12-01T16:05:00Z,27.1690,-82.9260,1014.81,1111122 
COMPS,ioos:station:USF.COMPS:C10:1,2016-12-01T16:35:00Z,27.1690,-82.9260,1014.56,1111122 
COMPS,ioos:station:USF.COMPS:C10:1,2016-12-01T17:05:00Z,27.1690,-82.9260,1014.25,1111122 
COMPS,ioos:station:USF.COMPS:C10:1,2016-12-01T17:35:00Z,27.1690,-82.9260,1013.8,1111122 
COMPS,ioos:station:USF.COMPS:C10:1,2016-12-01T18:05:00Z,27.1690,-82.9260,1013.38,1111122 
COMPS,ioos:station:USF.COMPS:C10:1,2016-12-01T18:35:00Z,27.1690,-82.9260,1013.02,1111122 
COMPS,ioos:station:USF.COMPS:C10:1,2016-12-01T19:05:00Z,27.1690,-82.9260,1012.76,1111122 
COMPS,ioos:station:USF.COMPS:C10:1,2016-12-01T19:35:00Z,27.1690,-82.9260,1012.53,1111122 
COMPS,ioos:station:USF.COMPS:C10:1,2016-12-01T20:05:00Z,27.1690,-82.9260,1012.57,1111122 
COMPS,ioos:station:USF.COMPS:C10:1,2016-12-01T20:35:00Z,27.1690,-82.9260,1012.59,1111122 
COMPS,ioos:station:USF.COMPS:C10:1,2016-12-01T22:05:00Z,27.1690,-82.9260,1013.17,1111122 
COMPS,ioos:station:USF.COMPS:C10:1,2016-12-01T22:35:00Z,27.1690,-82.9260,1013.17,1111122 
COMPS,ioos:station:USF.COMPS:C10:1,2016-12-02T01:05:00Z,27.1690,-82.9260,1014.52,1111122 
COMPS,ioos:station:USF.COMPS:C10:1,2016-12-02T01:35:00Z,27.1690,-82.9260,1014.61,1111122 
COMPS,ioos:station:USF.COMPS:C10:1,2016-12-02T03:05:00Z,27.1690,-82.9260,1014.95,1111122 
COMPS,ioos:station:USF.COMPS:C10:1,2016-12-02T03:35:00Z,27.1690,-82.9260,1015.01,1111122 
COMPS,ioos:station:USF.COMPS:C10:1,2016-12-02T04:05:00Z,27.1690,-82.9260,1014.88,1111122 
COMPS,ioos:station:USF.COMPS:C10:1,2016-12-02T04:35:00Z,27.1690,-82.9260,1014.89,1111122 
COMPS,ioos:station:USF.COMPS:C10:1,2016-12-02T05:05:00Z,27.1690,-82.9260,1014.97,1111122 
COMPS,ioos:station:USF.COMPS:C10:1,2016-12-02T05:35:00Z,27.1690,-82.9260,1014.99,1111122 
COMPS,ioos:station:USF.COMPS:C10:1,2016-12-02T17:05:00Z,27.1690,-82.9260,1018.43,1111122 
COMPS,ioos:station:USF.COMPS:C10:1,2016-12-02T17:35:00Z,27.1690,-82.9260,1017.77,1111122 
COMPS,ioos:station:USF.COMPS:C10:1,2016-12-02T19:05:00Z,27.1690,-82.9260,1016.76,1111122 
COMPS,ioos:station:USF.COMPS:C10:1,2016-12-02T19:35:00Z,27.1690,-82.9260,1016.76,1111122 
COMPS,ioos:station:USF.COMPS:C10:1,2016-12-02T21:05:00Z,27.1690,-82.9260,1016.34,1111122 
COMPS,ioos:station:USF.COMPS:C10:1,2016-12-02T21:35:00Z,27.1690,-82.9260,1016.42,1111122 
COMPS,ioos:station:USF.COMPS:C10:1,2016-12-03T06:05:00Z,27.1690,-82.9260,1018.19,1111122 
COMPS,ioos:station:USF.COMPS:C10:1,2016-12-03T06:35:00Z,27.1690,-82.9260,1018.17,1111122 
COMPS,ioos:station:USF.COMPS:C10:1,2016-12-03T07:05:00Z,27.1690,-82.9260,1018.15,1111122 
COMPS,ioos:station:USF.COMPS:C10:1,2016-12-03T07:35:00Z,27.1690,-82.9260,1018.25,1111122 
COMPS,ioos:station:USF.COMPS:C10:1,2016-12-03T10:05:00Z,27.1690,-82.9260,1018.1,1111122 
COMPS,ioos:station:USF.COMPS:C10:1,2016-12-03T10:35:00Z,27.1690,-82.9260,1018.03,1111122 
COMPS,ioos:station:USF.COMPS:C10:1,2016-12-03T14:05:00Z,27.1690,-82.9260,1019.14,1111122 
COMPS,ioos:station:USF.COMPS:C10:1,2016-12-03T14:35:00Z,27.1690,-82.9260,1019.19,1111122 
COMPS,ioos:station:USF.COMPS:C10:1,2016-12-04T01:05:00Z,27.1690,-82.9260,1015.99,1111122 
COMPS,ioos:station:USF.COMPS:C10:1,2016-12-04T01:35:00Z,27.1690,-82.9260,1016.35,1111122 
COMPS,ioos:station:USF.COMPS:C10:1,2016-12-04T02:05:00Z,27.1690,-82.9260,1016.71,1111122 
COMPS,ioos:station:USF.COMPS:C10:1,2016-12-04T02:35:00Z,27.1690,-82.9260,1016.85,1111122 
COMPS,ioos:station:USF.COMPS:C10:1,2016-12-04T03:05:00Z,27.1690,-82.9260,1016.87,1111122 
COMPS,ioos:station:USF.COMPS:C10:1,2016-12-04T03:35:00Z,27.1690,-82.9260,1016.83,1111122 
COMPS,ioos:station:USF.COMPS:C10:1,2016-12-04T05:05:00Z,27.1690,-82.9260,1016.36,1111122 
COMPS,ioos:station:USF.COMPS:C10:1,2016-12-04T05:35:00Z,27.1690,-82.9260,1015.88,1111122 
COMPS,ioos:station:USF.COMPS:C10:1,2016-12-04T07:05:00Z,27.1690,-82.9260,1015.3,1111122 
COMPS,ioos:station:USF.COMPS:C10:1,2016-12-04T07:35:00Z,27.1690,-82.9260,1015.34,1111122 
COMPS,ioos:station:USF.COMPS:C10:1,2016-12-04T12:05:00Z,27.1690,-82.9260,1015.34,1111122 
COMPS,ioos:station:USF.COMPS:C10:1,2016-12-04T12:35:00Z,27.1690,-82.9260,1015.48,1111122 
COMPS,ioos:station:USF.COMPS:C10:1,2016-12-04T13:05:00Z,27.1690,-82.9260,1015.72,1111122 
COMPS,ioos:station:USF.COMPS:C10:1,2016-12-04T13:35:00Z,27.1690,-82.9260,1015.86,1111122 
COMPS,ioos:station:USF.COMPS:C10:1,2016-12-04T14:05:00Z,27.1690,-82.9260,1016.07,1111122 
COMPS,ioos:station:USF.COMPS:C10:1,2016-12-04T14:35:00Z,27.1690,-82.9260,1016.31,1111122 
COMPS,ioos:station:USF.COMPS:C10:1,2016-12-04T15:05:00Z,27.1690,-82.9260,1016.39,1111122 
COMPS,ioos:station:USF.COMPS:C10:1,2016-12-04T15:35:00Z,27.1690,-82.9260,1016.37,1111122 
COMPS,ioos:station:USF.COMPS:C10:1,2016-12-04T16:05:00Z,27.1690,-82.9260,1016.15,1111122 
COMPS,ioos:station:USF.COMPS:C10:1,2016-12-04T16:35:00Z,27.1690,-82.9260,1015.83,1111122 
COMPS,ioos:station:USF.COMPS:C10:1,2016-12-04T17:05:00Z,27.1690,-82.9260,1015.49,1111122 
COMPS,ioos:station:USF.COMPS:C10:1,2016-12-04T17:35:00Z,27.1690,-82.9260,1015.17,1111122 
COMPS,ioos:station:USF.COMPS:C10:1,2016-12-04T18:05:00Z,27.1690,-82.9260,1014.76,1111122 
COMPS,ioos:station:USF.COMPS:C10:1,2016-12-04T18:35:00Z,27.1690,-82.9260,1014.33,1111122 
COMPS,ioos:station:USF.COMPS:C10:1,2016-12-04T19:05:00Z,27.1690,-82.9260,1014.07,1111122 
COMPS,ioos:station:USF.COMPS:C10:1,2016-12-04T19:35:00Z,27.1690,-82.9260,1013.76,1111122 
COMPS,ioos:station:USF.COMPS:C10:1,2016-12-04T20:05:00Z,27.1690,-82.9260,1013.65,1111122 
COMPS,ioos:station:USF.COMPS:C10:1,2016-12-04T20:35:00Z,27.1690,-82.9260,1013.57,1111122 
COMPS,ioos:station:USF.COMPS:C10:1,2016-12-04T21:05:00Z,27.1690,-82.9260,1013.6,1111122 
COMPS,ioos:station:USF.COMPS:C10:1,2016-12-04T21:35:00Z,27.1690,-82.9260,1013.64,1111122 
COMPS,ioos:station:USF.COMPS:C10:1,2016-12-04T22:05:00Z,27.1690,-82.9260,1013.5,1111122 
COMPS,ioos:station:USF.COMPS:C10:1,2016-12-04T22:35:00Z,27.1690,-82.9260,1013.63,1111122 
COMPS,ioos:station:USF.COMPS:C10:1,2016-12-04T23:05:00Z,27.1690,-82.9260,1013.82,1111122 
COMPS,ioos:station:USF.COMPS:C10:1,2016-12-04T23:35:00Z,27.1690,-82.9260,1014.03,1111122 
COMPS,ioos:station:USF.COMPS:C10:1,2016-12-05T00:05:00Z,27.1690,-82.9260,1013.92,1111122 
COMPS,ioos:station:USF.COMPS:C10:1,2016-12-05T00:35:00Z,27.1690,-82.9260,1013.87,1111122 
COMPS,ioos:station:USF.COMPS:C10:1,2016-12-05T01:05:00Z,27.1690,-82.9260,1014.25,1111122 
COMPS,ioos:station:USF.COMPS:C10:1,2016-12-05T01:35:00Z,27.1690,-82.9260,1014.66,1111122 
COMPS,ioos:station:USF.COMPS:C10:1,2016-12-05T02:05:00Z,27.1690,-82.9260,1014.76,1111122 
COMPS,ioos:station:USF.COMPS:C10:1,2016-12-05T02:35:00Z,27.1690,-82.9260,1014.57,1111122 
COMPS,ioos:station:USF.COMPS:C10:1,2016-12-05T03:05:00Z,27.1690,-82.9260,1014.78,1111122 
COMPS,ioos:station:USF.COMPS:C10:1,2016-12-05T03:35:00Z,27.1690,-82.9260,1014.93,1111122 
COMPS,ioos:station:USF.COMPS:C10:1,2016-12-05T04:05:00Z,27.1690,-82.9260,1014.81,1111122 
COMPS,ioos:station:USF.COMPS:C10:1,2016-12-05T04:35:00Z,27.1690,-82.9260,1014.76,1111122 
COMPS,ioos:station:USF.COMPS:C10:1,2016-12-05T05:05:00Z,27.1690,-82.9260,1014.4,1111122 
COMPS,ioos:station:USF.COMPS:C10:1,2016-12-05T05:35:00Z,27.1690,-82.9260,1014.0,1111122 
COMPS,ioos:station:USF.COMPS:C10:1,2016-12-05T06:05:00Z,27.1690,-82.9260,1014.0,1111122 
COMPS,ioos:station:USF.COMPS:C10:1,2016-12-05T06:35:00Z,27.1690,-82.9260,1013.98,1111122 
COMPS,ioos:station:USF.COMPS:C10:1,2016-12-05T07:05:00Z,27.1690,-82.9260,1013.81,1111122 
COMPS,ioos:station:USF.COMPS:C10:1,2016-12-05T07:35:00Z,27.1690,-82.9260,1013.73,1111122 
COMPS,ioos:station:USF.COMPS:C10:1,2016-12-05T08:05:00Z,27.1690,-82.9260,1013.78,1111122 
COMPS,ioos:station:USF.COMPS:C10:1,2016-12-05T08:35:00Z,27.1690,-82.9260,1013.92,1111122 
COMPS,ioos:station:USF.COMPS:C10:1,2016-12-05T09:05:00Z,27.1690,-82.9260,1013.35,1111122 
COMPS,ioos:station:USF.COMPS:C10:1,2016-12-05T09:35:00Z,27.1690,-82.9260,1013.22,1111122 
COMPS,ioos:station:USF.COMPS:C10:1,2016-12-05T10:05:00Z,27.1690,-82.9260,1013.14,1111122 
COMPS,ioos:station:USF.COMPS:C10:1,2016-12-05T10:35:00Z,27.1690,-82.9260,1013.1,1111122 
COMPS,ioos:station:USF.COMPS:C10:1,2016-12-05T11:05:00Z,27.1690,-82.9260,1012.93,1111122 
COMPS,ioos:station:USF.COMPS:C10:1,2016-12-05T11:35:00Z,27.1690,-82.9260,1013.21,1111122 
COMPS,ioos:station:USF.COMPS:C10:1,2016-12-05T12:05:00Z,27.1690,-82.9260,1012.82,1111122 
COMPS,ioos:station:USF.COMPS:C10:1,2016-12-05T12:35:00Z,27.1690,-82.9260,1012.77,1111122 
COMPS,ioos:station:USF.COMPS:C10:1,2016-12-05T13:05:00Z,27.1690,-82.9260,1013.03,1111122 
COMPS,ioos:station:USF.COMPS:C10:1,2016-12-05T13:35:00Z,27.1690,-82.9260,1013.27,1111122 
COMPS,ioos:station:USF.COMPS:C10:1,2016-12-05T14:05:00Z,27.1690,-82.9260,1013.57,1111122 
COMPS,ioos:station:USF.COMPS:C10:1,2016-12-05T14:35:00Z,27.1690,-82.9260,1013.67,1111122 
COMPS,ioos:station:USF.COMPS:C10:1,2016-12-05T15:05:00Z,27.1690,-82.9260,1014.05,1111122 
COMPS,ioos:station:USF.COMPS:C10:1,2016-12-05T15:35:00Z,27.1690,-82.9260,1014.18,1111122 
COMPS,ioos:station:USF.COMPS:C10:1,2016-12-05T16:05:00Z,27.1690,-82.9260,1014.03,1111122 
COMPS,ioos:station:USF.COMPS:C10:1,2016-12-05T16:35:00Z,27.1690,-82.9260,1013.6,1111122 
COMPS,ioos:station:USF.COMPS:C10:1,2016-12-05T17:05:00Z,27.1690,-82.9260,1013.1,1111122 
COMPS,ioos:station:USF.COMPS:C10:1,2016-12-05T17:35:00Z,27.1690,-82.9260,1012.54,1111122 
COMPS,ioos:station:USF.COMPS:C10:1,2016-12-05T18:05:00Z,27.1690,-82.9260,1012.08,1111122 
COMPS,ioos:station:USF.COMPS:C10:1,2016-12-05T18:35:00Z,27.1690,-82.9260,1011.71,1111122 
COMPS,ioos:station:USF.COMPS:C10:1,2016-12-05T19:05:00Z,27.1690,-82.9260,1011.4,1111122 
COMPS,ioos:station:USF.COMPS:C10:1,2016-12-05T19:35:00Z,27.1690,-82.9260,1010.87,1111122 
COMPS,ioos:station:USF.COMPS:C10:1,2016-12-05T20:05:00Z,27.1690,-82.9260,1010.74,1111122 
COMPS,ioos:station:USF.COMPS:C10:1,2016-12-05T20:35:00Z,27.1690,-82.9260,1010.5,1111122 
COMPS,ioos:station:USF.COMPS:C10:1,2016-12-05T21:05:00Z,27.1690,-82.9260,1010.56,1111122 
COMPS,ioos:station:USF.COMPS:C10:1,2016-12-05T21:35:00Z,27.1690,-82.9260,1010.6,1111122 
COMPS,ioos:station:USF.COMPS:C10:1,2016-12-05T22:05:00Z,27.1690,-82.9260,1010.5,1111122 
COMPS,ioos:station:USF.COMPS:C10:1,2016-12-05T22:35:00Z,27.1690,-82.9260,1010.58,1111122 
COMPS,ioos:station:USF.COMPS:C10:1,2016-12-05T23:05:00Z,27.1690,-82.9260,1010.58,1111122 
COMPS,ioos:station:USF.COMPS:C10:1,2016-12-05T23:35:00Z,27.1690,-82.9260,1010.46,1111122 
COMPS,ioos:station:USF.COMPS:C10:1,2016-12-06T00:05:00Z,27.1690,-82.9260,1010.48,1111122 
COMPS,ioos:station:USF.COMPS:C10:1,2016-12-06T00:35:00Z,27.1690,-82.9260,1010.62,1111122 
COMPS,ioos:station:USF.COMPS:C10:1,2016-12-06T01:05:00Z,27.1690,-82.9260,1010.97,1111122 
COMPS,ioos:station:USF.COMPS:C10:1,2016-12-06T01:35:00Z,27.1690,-82.9260,1011.32,1111122 
COMPS,ioos:station:USF.COMPS:C10:1,2016-12-06T02:05:00Z,27.1690,-82.9260,1011.14,1111122 
COMPS,ioos:station:USF.COMPS:C10:1,2016-12-06T02:35:00Z,27.1690,-82.9260,1010.85,1111122 
COMPS,ioos:station:USF.COMPS:C10:1,2016-12-06T03:05:00Z,27.1690,-82.9260,1010.85,1111122 
COMPS,ioos:station:USF.COMPS:C10:1,2016-12-06T03:35:00Z,27.1690,-82.9260,1011.08,1111122 
COMPS,ioos:station:USF.COMPS:C10:1,2016-12-06T04:05:00Z,27.1690,-82.9260,1010.99,1111122 
COMPS,ioos:station:USF.COMPS:C10:1,2016-12-06T04:35:00Z,27.1690,-82.9260,1010.55,1111122 
COMPS,ioos:station:USF.COMPS:C10:1,2016-12-06T05:05:00Z,27.1690,-82.9260,1010.44,1111122 
COMPS,ioos:station:USF.COMPS:C10:1,2016-12-06T05:35:00Z,27.1690,-82.9260,1010.01,1111122 
COMPS,ioos:station:USF.COMPS:C10:1,2016-12-06T06:05:00Z,27.1690,-82.9260,1009.91,1111122 
COMPS,ioos:station:USF.COMPS:C10:1,2016-12-06T06:35:00Z,27.1690,-82.9260,1010.38,1111122 
COMPS,ioos:station:USF.COMPS:C10:1,2016-12-06T07:05:00Z,27.1690,-82.9260,1010.34,1111122 
COMPS,ioos:station:USF.COMPS:C10:1,2016-12-06T07:35:00Z,27.1690,-82.9260,1010.03,1111122 
COMPS,ioos:station:USF.COMPS:C10:1,2016-12-06T08:05:00Z,27.1690,-82.9260,1009.67,1111122 
COMPS,ioos:station:USF.COMPS:C10:1,2016-12-06T08:35:00Z,27.1690,-82.9260,1009.62,1111122 
COMPS,ioos:station:USF.COMPS:C10:1,2016-12-06T09:05:00Z,27.1690,-82.9260,1009.96,1111122 
COMPS,ioos:station:USF.COMPS:C10:1,2016-12-06T09:35:00Z,27.1690,-82.9260,1010.07,1111122 
COMPS,ioos:station:USF.COMPS:C10:1,2016-12-06T10:05:00Z,27.1690,-82.9260,1009.92,1111122 
COMPS,ioos:station:USF.COMPS:C10:1,2016-12-06T10:35:00Z,27.1690,-82.9260,1010.13,1111122 
COMPS,ioos:station:USF.COMPS:C10:1,2016-12-06T11:05:00Z,27.1690,-82.9260,1010.07,1111122 
COMPS,ioos:station:USF.COMPS:C10:1,2016-12-06T11:35:00Z,27.1690,-82.9260,1010.74,1111122 
COMPS,ioos:station:USF.COMPS:C10:1,2016-12-06T12:05:00Z,27.1690,-82.9260,1010.86,1111122 
COMPS,ioos:station:USF.COMPS:C10:1,2016-12-06T12:35:00Z,27.1690,-82.9260,1010.85,1111122 
COMPS,ioos:station:USF.COMPS:C10:1,2016-12-06T13:05:00Z,27.1690,-82.9260,1010.9,1111122 
COMPS,ioos:station:USF.COMPS:C10:1,2016-12-06T13:35:00Z,27.1690,-82.9260,1011.16,1111122 
COMPS,ioos:station:USF.COMPS:C10:1,2016-12-06T14:05:00Z,27.1690,-82.9260,1011.42,1111122 
COMPS,ioos:station:USF.COMPS:C10:1,2016-12-06T14:35:00Z,27.1690,-82.9260,1011.76,1111122 
COMPS,ioos:station:USF.COMPS:C10:1,2016-12-06T15:05:00Z,27.1690,-82.9260,1012.09,1111122 
COMPS,ioos:station:USF.COMPS:C10:1,2016-12-06T15:35:00Z,27.1690,-82.9260,1012.17,1111122 
COMPS,ioos:station:USF.COMPS:C10:1,2016-12-06T16:05:00Z,27.1690,-82.9260,1011.94,1111122 
COMPS,ioos:station:USF.COMPS:C10:1,2016-12-06T16:35:00Z,27.1690,-82.9260,1011.62,1111122 
COMPS,ioos:station:USF.COMPS:C10:1,2016-12-06T17:05:00Z,27.1690,-82.9260,1011.36,1111122 
COMPS,ioos:station:USF.COMPS:C10:1,2016-12-06T17:35:00Z,27.1690,-82.9260,1010.89,1111122 
COMPS,ioos:station:USF.COMPS:C10:1,2016-12-06T18:05:00Z,27.1690,-82.9260,1010.84,1111122 
COMPS,ioos:station:USF.COMPS:C10:1,2016-12-06T18:35:00Z,27.1690,-82.9260,1010.76,1111122 
COMPS,ioos:station:USF.COMPS:C10:1,2016-12-06T19:05:00Z,27.1690,-82.9260,1010.85,1111122 
COMPS,ioos:station:USF.COMPS:C10:1,2016-12-06T19:35:00Z,27.1690,-82.9260,1010.14,1111122 
COMPS,ioos:station:USF.COMPS:C10:1,2016-12-06T20:05:00Z,27.1690,-82.9260,1010.26,1111122 
COMPS,ioos:station:USF.COMPS:C10:1,2016-12-06T20:35:00Z,27.1690,-82.9260,1010.54,1111122 
COMPS,ioos:station:USF.COMPS:C10:1,2016-12-06T21:05:00Z,27.1690,-82.9260,1010.56,1111122 
COMPS,ioos:station:USF.COMPS:C10:1,2016-12-06T21:35:00Z,27.1690,-82.9260,1010.45,1111122 
COMPS,ioos:station:USF.COMPS:C10:1,2016-12-06T22:05:00Z,27.1690,-82.9260,1011.14,1111122 
COMPS,ioos:station:USF.COMPS:C10:1,2016-12-06T22:35:00Z,27.1690,-82.9260,1011.59,1111122 
COMPS,ioos:station:USF.COMPS:C10:1,2016-12-06T23:05:00Z,27.1690,-82.9260,1011.94,1111122 
COMPS,ioos:station:USF.COMPS:C10:1,2016-12-06T23:35:00Z,27.1690,-82.9260,1011.9,1111122 
COMPS,ioos:station:USF.COMPS:C10:1,2016-12-07T00:05:00Z,27.1690,-82.9260,1012.28,1111122 
COMPS,ioos:station:USF.COMPS:C10:1,2016-12-07T00:35:00Z,27.1690,-82.9260,1012.63,1111122 
COMPS,ioos:station:USF.COMPS:C10:1,2016-12-07T01:05:00Z,27.1690,-82.9260,1012.92,1111122 
COMPS,ioos:station:USF.COMPS:C10:1,2016-12-07T01:35:00Z,27.1690,-82.9260,1013.17,1111122 
COMPS,ioos:station:USF.COMPS:C10:1,2016-12-07T02:05:00Z,27.1690,-82.9260,1013.42,1111122 
COMPS,ioos:station:USF.COMPS:C10:1,2016-12-07T02:35:00Z,27.1690,-82.9260,1013.51,1111122 
COMPS,ioos:station:USF.COMPS:C10:1,2016-12-07T03:05:00Z,27.1690,-82.9260,1013.65,1111122 
COMPS,ioos:station:USF.COMPS:C10:1,2016-12-07T03:35:00Z,27.1690,-82.9260,1013.65,1111122 
COMPS,ioos:station:USF.COMPS:C10:1,2016-12-07T04:05:00Z,27.1690,-82.9260,1013.67,1111122 
COMPS,ioos:station:USF.COMPS:C10:1,2016-12-07T04:35:00Z,27.1690,-82.9260,1013.7,1111122 
COMPS,ioos:station:USF.COMPS:C10:1,2016-12-07T05:05:00Z,27.1690,-82.9260,1013.53,1111122 
COMPS,ioos:station:USF.COMPS:C10:1,2016-12-07T05:35:00Z,27.1690,-82.9260,1013.3,1111122 
COMPS,ioos:station:USF.COMPS:C10:1,2016-12-07T06:05:00Z,27.1690,-82.9260,1013.43,1111122 
COMPS,ioos:station:USF.COMPS:C10:1,2016-12-07T06:35:00Z,27.1690,-82.9260,1013.56,1111122 
COMPS,ioos:station:USF.COMPS:C10:1,2016-12-07T07:05:00Z,27.1690,-82.9260,1013.69,1111122 
COMPS,ioos:station:USF.COMPS:C10:1,2016-12-07T07:35:00Z,27.1690,-82.9260,1013.78,1111122 
COMPS,ioos:station:USF.COMPS:C10:1,2016-12-07T08:05:00Z,27.1690,-82.9260,1013.74,1111122 
COMPS,ioos:station:USF.COMPS:C10:1,2016-12-07T08:35:00Z,27.1690,-82.9260,1013.91,1111122 
COMPS,ioos:station:USF.COMPS:C10:1,2016-12-07T09:05:00Z,27.1690,-82.9260,1013.99,1111122 
COMPS,ioos:station:USF.COMPS:C10:1,2016-12-07T09:35:00Z,27.1690,-82.9260,1014.0,1111122 
COMPS,ioos:station:USF.COMPS:C10:1,2016-12-07T10:05:00Z,27.1690,-82.9260,1014.23,1111122 
COMPS,ioos:station:USF.COMPS:C10:1,2016-12-07T10:35:00Z,27.1690,-82.9260,1014.53,1111122 
COMPS,ioos:station:USF.COMPS:C10:1,2016-12-07T11:05:00Z,27.1690,-82.9260,1014.7,1111122 
COMPS,ioos:station:USF.COMPS:C10:1,2016-12-07T11:35:00Z,27.1690,-82.9260,1015.03,1111122 
COMPS,ioos:station:USF.COMPS:C10:1,2016-12-07T12:05:00Z,27.1690,-82.9260,1015.34,1111122 
COMPS,ioos:station:USF.COMPS:C10:1,2016-12-07T12:35:00Z,27.1690,-82.9260,1015.53,1111122 
COMPS,ioos:station:USF.COMPS:C10:1,2016-12-07T14:05:00Z,27.1690,-82.9260,1016.65,1111122 
COMPS,ioos:station:USF.COMPS:C10:1,2016-12-07T14:35:00Z,27.1690,-82.9260,1016.86,1111122 
COMPS,ioos:station:USF.COMPS:C10:1,2016-12-07T19:05:00Z,27.1690,-82.9260,1015.51,1111122 
COMPS,ioos:station:USF.COMPS:C10:1,2016-12-07T19:35:00Z,27.1690,-82.9260,1015.52,1111122 
COMPS,ioos:station:USF.COMPS:C10:1,2016-12-07T20:05:00Z,27.1690,-82.9260,1015.54,1111122 
COMPS,ioos:station:USF.COMPS:C10:1,2016-12-07T20:35:00Z,27.1690,-82.9260,1015.55,1111122 
COMPS,ioos:station:USF.COMPS:C10:1,2016-12-07T21:05:00Z,27.1690,-82.9260,1015.74,1111122 
COMPS,ioos:station:USF.COMPS:C10:1,2016-12-07T21:35:00Z,27.1690,-82.9260,1015.89,1111122 
COMPS,ioos:station:USF.COMPS:C10:1,2016-12-08T06:05:00Z,27.1690,-82.9260,1017.68,1111122 
COMPS,ioos:station:USF.COMPS:C10:1,2016-12-08T06:35:00Z,27.1690,-82.9260,1017.55,1111122 
COMPS,ioos:station:USF.COMPS:C10:1,2016-12-08T09:05:00Z,27.1690,-82.9260,1017.25,1111122 
COMPS,ioos:station:USF.COMPS:C10:1,2016-12-08T09:35:00Z,27.1690,-82.9260,1017.54,1111122 
COMPS,ioos:station:USF.COMPS:C10:1,2016-12-08T13:05:00Z,27.1690,-82.9260,1018.69,1111122 
COMPS,ioos:station:USF.COMPS:C10:1,2016-12-08T13:35:00Z,27.1690,-82.9260,1019.42,1111122 
COMPS,ioos:station:USF.COMPS:C10:1,2016-12-08T14:05:00Z,27.1690,-82.9260,1019.47,1111122 
COMPS,ioos:station:USF.COMPS:C10:1,2016-12-08T14:35:00Z,27.1690,-82.9260,1019.81,1111122 
COMPS,ioos:station:USF.COMPS:C10:1,2016-12-08T17:05:00Z,27.1690,-82.9260,1019.54,1111122 
COMPS,ioos:station:USF.COMPS:C10:1,2016-12-08T17:35:00Z,27.1690,-82.9260,1018.85,1111122 
COMPS,ioos:station:USF.COMPS:C10:1,2016-12-08T18:05:00Z,27.1690,-82.9260,1018.67,1111122 
COMPS,ioos:station:USF.COMPS:C10:1,2016-12-08T18:35:00Z,27.1690,-82.9260,1018.29,1111122 
COMPS,ioos:station:USF.COMPS:C10:1,2016-12-08T19:05:00Z,27.1690,-82.9260,1018.25,1111122 
COMPS,ioos:station:USF.COMPS:C10:1,2016-12-08T19:35:00Z,27.1690,-82.9260,1017.79,1111122 
COMPS,ioos:station:USF.COMPS:C10:1,2016-12-08T21:05:00Z,27.1690,-82.9260,1017.88,1111122 
COMPS,ioos:station:USF.COMPS:C10:1,2016-12-08T21:35:00Z,27.1690,-82.9260,1018.31,1111122 
COMPS,ioos:station:USF.COMPS:C10:1,2016-12-08T22:05:00Z,27.1690,-82.9260,1018.57,1111122 
COMPS,ioos:station:USF.COMPS:C10:1,2016-12-08T22:35:00Z,27.1690,-82.9260,1018.69,1111122 
COMPS,ioos:station:USF.COMPS:C10:1,2016-12-08T23:05:00Z,27.1690,-82.9260,1019.06,1111122 
COMPS,ioos:station:USF.COMPS:C10:1,2016-12-08T23:35:00Z,27.1690,-82.9260,1019.58,1111122 
COMPS,ioos:station:USF.COMPS:C10:1,2016-12-09T01:05:00Z,27.1690,-82.9260,1019.73,1111122 
COMPS,ioos:station:USF.COMPS:C10:1,2016-12-09T01:35:00Z,27.1690,-82.9260,1019.62,1111122 
COMPS,ioos:station:USF.COMPS:C10:1,2016-12-09T09:05:00Z,27.1690,-82.9260,1020.41,1111122 
COMPS,ioos:station:USF.COMPS:C10:1,2016-12-09T09:35:00Z,27.1690,-82.9260,1020.62,1111122 
COMPS,ioos:station:USF.COMPS:C10:1,2016-12-09T11:05:00Z,27.1690,-82.9260,1021.36,1111122 
COMPS,ioos:station:USF.COMPS:C10:1,2016-12-09T11:35:00Z,27.1690,-82.9260,1021.99,1111122 
COMPS,ioos:station:USF.COMPS:C10:1,2016-12-09T19:05:00Z,27.1690,-82.9260,1022.25,1111122 
COMPS,ioos:station:USF.COMPS:C10:1,2016-12-09T19:35:00Z,27.1690,-82.9260,1021.82,1111122 
COMPS,ioos:station:USF.COMPS:C10:1,2016-12-09T20:05:00Z,27.1690,-82.9260,1021.71,1111122 
COMPS,ioos:station:USF.COMPS:C10:1,2016-12-09T20:35:00Z,27.1690,-82.9260,1022.05,1111122 
COMPS,ioos:station:USF.COMPS:C10:1,2016-12-09T21:05:00Z,27.1690,-82.9260,1022.44,1111122 
COMPS,ioos:station:USF.COMPS:C10:1,2016-12-09T21:35:00Z,27.1690,-82.9260,1022.59,1111122 
COMPS,ioos:station:USF.COMPS:C10:1,2016-12-10T11:05:00Z,27.1690,-82.9260,1024.54,1111122 
COMPS,ioos:station:USF.COMPS:C10:1,2016-12-10T11:35:00Z,27.1690,-82.9260,1024.66,1111122 
COMPS,ioos:station:USF.COMPS:C10:1,2016-12-10T13:05:00Z,27.1690,-82.9260,1025.36,1111122 
COMPS,ioos:station:USF.COMPS:C10:1,2016-12-10T13:35:00Z,27.1690,-82.9260,1025.47,1111122 